Terminal Aerodrome Forecast
Issued by NWS King Salmon, AK

Home | Current Version | Previous Version | Text Only | Print | Product List | Glossary On
Versions: 1 2 3 4 5 6 7 8 9 10 11 12 13 14 15 16 17 18 19 20 21 22 23 24 25 26 27 28 29 30 31
000
FTAK31 PANC 250120 AAA
TAFAKN
TAF AMD
PAKN 250120Z 2501/2524 23006KT P6SM FEW015 BKN025
     FM251600 18008G18KT P6SM VCSH BKN008 OVC015
     FM252200 18008G18KT P6SM SCT015 BKN070=

USA.gov is the U.S. government's official web portal to all federal, state and local government web resources and services.